Tracking 19489 objects as of 22-Jan-2019
HD Live streaming from Space Station
objects crossing your sky now

FLOCK 3K 11

Track FLOCK 3K 11 now!
10-day predictions
FLOCK 3K 11 is classified as:


NORAD ID: 43904
Int'l Code: 2018-111AE
Perigee: 485.5 km
Apogee: 517.6 km
Inclination: 97.3 °
Period: 94.5 minutes
Semi major axis: 6872 km
RCS: Unknown
Launch date: December 27, 2018
Source: United States (US)
Launch site: VOSTOCHNY COSMODROME (VOSTO)
aabbcc
Your satellite tracking list
Your tracking list is empty




NASA's NSSDC Master Catalog

Two Line Element Set (TLE):
1 43904U 18111AE  19022.54704482  .00002759  00000-0  11667-3 0  9997
2 43904  97.2998 291.7369 0023335 147.4593 212.8088 15.23803801  4039
Source of the keplerian elements: AFSPC